Airfield :
LOGIN :

Register | Disclaimer

   EN    FR    IT 

 










Legend :    VFR   Marginal VFR   IFR   Intensive IFR   Very Intensive IFR
Visi :
Ceiling :
>= 8 km
>= 3000ft
5 to 8 km
1000 to 3000 ft
1500m to 5 km
500 to 1000 ft
800 to 1500m
200 to 500 ft
< 800m
< 200 ft
Symbols :   Thunderstorms  Fog  Heavy snow  Heavy precipitations  Wind > 20 kt
SIGMETs :     Misc.  Thunderstorms  Icing  Turbulence  Mountain Waves  Volcanic Ashes







- Airport Elevation : 80 ft
- IATA code : LPL
- Download approach charts


EGGP - Liverpool John Lennon

CURRENT METAR :
  • 160020Z 19008KT 9999 SCT025 18/16 Q1009

EXPIRED METARs :
  • 152350Z 19009KT 9999 SCT028 17/16 Q1009
  • 152320Z 19007KT 9999 SCT016 18/16 Q1010
  • 152250Z 19009KT 9999 FEW019 SCT030 18/17 Q1010
  • 152220Z 18007KT 9999 VCSH FEW019 SCT022 18/16 Q1010
  • 152150Z 19009KT 9999 VCSH FEW019 SCT027 18/16 Q1010

TAF TAF EGGP
Valid from the 16 at 00:00 until the 17 at 00:00 UTC


152257Z 1600/1624 19006KT 9999 FEW015 SCT040
TEMPO 1600/1606 6000 RA
PROB30
TEMPO 1600/1603 4000 +RA
BECMG 1609/1612 28012KT
PROB30
TEMPO 1612/1618 28015G25KT 7000 SHRA
ATIS : +44 151 907 2000 (option 5 or ext 5150)
Met : +44 871 750 5150
No reported NOTAMs for that airfield.



MET'MAP, your aeronautical weather chart ! - Copyright ORBIFLY December 2007 - Disclaimer

ORBIFLY MET'MAP TEAM :

Programming & Development : Alexandra Zaïnal
Concept & Development : Baudouin d'Aumeries
Co-Development & Prog : Marc-Olivier Méhu
Technical & hardware support : Manuel Goepfert

Contact : metmap@orbifly.com




SOURCES & CREDITS :

   NOAA